Weather History for Naples, FL

Change the Weather History Date:

Wednesday, January 29, 2014

  Actual Average Record
Temperature  
Mean Temperature 63 °F 65 °F  
Max Temperature 71 °F 75 °F 86 °F (1974)
Min Temperature 54 °F 55 °F 33 °F (1986)
Degree Days  
Heating Degree Days 2 3  
Month to date heating degree days 110 100  
Since 1 July heating degree days 118 178  
Cooling Degree Days 0 2  
Month to date cooling degree days 86 84  
Year to date cooling degree days 86 84  
Growing Degree Days 13 (Base 50)    
Moisture  
Dew Point 61 °F    
Average Humidity 92    
Maximum Humidity 100    
Minimum Humidity 84    
Precipitation  
Precipitation 0.02 in 0.07 in 1.08 in (1961)
Month to date precipitation 0.56 1.69  
Year to date precipitation 0.56 1.69  
Snow  
Snow 0.00 in - - ()
Month to date snowfall 0.0  
Since 1 July snowfall 0.0  
Snow Depth 0.00 in    
Sea Level Pressure  
Sea Level Pressure 30.03 in    
Wind  
Wind Speed 7 mph (NNE)    
Max Wind Speed 20 mph    
Max Gust Speed 28 mph    
Visibility 7 miles    
Events Fog , Rain    
T = Trace of Precipitation, MM = Missing Value Source: NWS Daily Summary

Daily Weather History Graph

Daily Weather History Graph

Search for Another Location

Airport:

Trip Planner

Search our weather history database for the weather conditions in past years. The results will help you decide how hot, cold, wet, or windy it might be!

Date:

Astronomy

Jan. 29, 2014 Rise Set
Actual Time 7:12 AM EST 6:08 PM EST
Civil Twilight 6:48 AM EST 6:32 PM EST
Nautical Twilight 6:20 AM EST 7:00 PM EST
Astronomical Twilight 5:53 AM EST 7:27 PM EST
Moon 5:47 AM EST (1/29) 5:05 PM EST (1/29)
Length of Visible Light 11h 43m
Length of Day
10h 55m
Waning Crescent, 2% of the Moon is Illuminated
Jan 29
Waning Crescent
Jan 30
New
Feb 6
First Quarter
Feb 14
Full
Feb 22
Last Quarter

Hourly Weather History & Observations

Time (EST) Temp. Dew Point Humidity Pressure Visibility Wind Dir Wind Speed Gust Speed Precip Events Conditions
12:53 AM 64.9 °F 64.9 °F 100% 30.02 in 7.0 mi SSE 3.5 mph - N/A   Clear
1:53 AM 64.9 °F 64.0 °F 97% 30.01 in 7.0 mi Calm Calm - N/A   Clear
2:53 AM 64.9 °F 64.0 °F 97% 29.99 in 4.0 mi Calm Calm - N/A   Clear
3:46 AM 62.6 °F 62.6 °F 100% 29.99 in 1.5 mi Calm Calm - N/A   Clear
3:50 AM 62.6 °F 62.6 °F 100% 29.99 in 0.8 mi Calm Calm - N/A   Mist
3:53 AM 63.0 °F 63.0 °F 100% 29.99 in 0.5 mi Calm Calm - N/A Fog Fog
3:58 AM 64.4 °F 64.4 °F 100% 29.99 in 1.0 mi Calm Calm - N/A   Mist
4:00 AM 64.4 °F 64.4 °F 100% 29.99 in 2.0 mi Calm Calm - N/A   Clear
4:08 AM 64.4 °F 64.4 °F 100% 29.99 in 4.0 mi Calm Calm - N/A   Clear
4:15 AM 62.6 °F 62.6 °F 100% 29.99 in 2.0 mi Calm Calm - N/A   Partly Cloudy
4:25 AM 62.6 °F 62.6 °F 100% 29.99 in 7.0 mi Calm Calm - N/A   Clear
4:53 AM 64.0 °F 63.0 °F 96% 29.99 in 6.0 mi Calm Calm - N/A   Clear
5:34 AM 64.4 °F 64.4 °F 100% 29.99 in 8.0 mi Calm Calm - N/A   Overcast
5:49 AM 64.4 °F 64.4 °F 100% 30.00 in 7.0 mi Calm Calm - N/A   Overcast
5:53 AM 64.9 °F 64.9 °F 100% 30.00 in 6.0 mi Calm Calm - N/A   Overcast
6:02 AM 64.4 °F 64.4 °F 100% 30.00 in 5.0 mi Calm Calm - N/A   Overcast
6:22 AM 64.4 °F 64.4 °F 100% 30.00 in 7.0 mi Calm Calm - N/A   Overcast
6:53 AM 64.9 °F 64.9 °F 100% 30.01 in 7.0 mi Calm Calm - N/A   Overcast
7:31 AM 66.2 °F 64.4 °F 94% 30.02 in 6.0 mi Calm Calm - N/A   Overcast
7:53 AM 66.9 °F 66.0 °F 97% 30.03 in 7.0 mi Calm Calm - N/A   Mostly Cloudy
8:37 AM 68.0 °F 66.2 °F 94% 30.04 in 6.0 mi Calm Calm - N/A   Mostly Cloudy
8:51 AM 68.0 °F 66.2 °F 94% 30.04 in 6.0 mi Calm Calm - N/A   Scattered Clouds
8:52 AM 68.0 °F 66.9 °F 96% 30.04 in 6.0 mi Calm Calm - N/A   Scattered Clouds
9:12 AM 71.6 °F 68.0 °F 88% 30.06 in 8.0 mi NW 5.8 mph - N/A   Mostly Cloudy
9:53 AM 69.1 °F 66.9 °F 93% 30.06 in 5.0 mi North 5.8 mph - N/A   Overcast
10:17 AM 68.0 °F 66.2 °F 94% 30.06 in 4.0 mi North 9.2 mph - N/A   Overcast
10:53 AM 66.9 °F 66.0 °F 97% 30.06 in 4.0 mi North 6.9 mph - N/A   Overcast
11:24 AM 66.2 °F 64.4 °F 94% 30.06 in 6.0 mi NNE 12.7 mph 17.3 mph N/A   Overcast
11:53 AM 64.9 °F 62.1 °F 90% 30.05 in 8.0 mi NNE 13.8 mph 19.6 mph N/A   Overcast
12:53 PM 63.0 °F 61.0 °F 93% 30.06 in 5.0 mi NNE 9.2 mph - 0.00 in Rain Light Rain
1:53 PM 63.0 °F 61.0 °F 93% 30.03 in 4.0 mi NE 9.2 mph - 0.01 in Rain Light Rain
2:06 PM 62.6 °F 62.6 °F 100% 30.03 in 2.5 mi NE 10.4 mph - 0.00 in Rain Light Rain
2:33 PM 64.4 °F 62.6 °F 94% 30.01 in 6.0 mi NE 15.0 mph - 0.00 in   Overcast
2:53 PM 64.0 °F 62.1 °F 93% 30.01 in 8.0 mi NNE 9.2 mph - 0.00 in   Overcast
3:53 PM 64.0 °F 61.0 °F 90% 30.02 in 9.0 mi NE 13.8 mph - N/A   Overcast
4:53 PM 64.9 °F 61.0 °F 87% 30.02 in 10.0 mi NE 13.8 mph - N/A   Overcast
5:00 PM 64.4 °F 60.8 °F 88% 30.02 in 10.0 mi NE 16.1 mph 21.9 mph N/A   Overcast
5:32 PM 62.6 °F 59.0 °F 88% 30.03 in 10.0 mi NE 10.4 mph 18.4 mph N/A   Overcast
5:53 PM 63.0 °F 57.9 °F 84% 30.04 in 10.0 mi NNE 11.5 mph 20.7 mph N/A   Overcast
6:21 PM 60.8 °F 57.2 °F 88% 30.05 in 9.0 mi NNE 9.2 mph 23.0 mph 0.01 in Rain Light Rain
6:49 PM 60.8 °F 57.2 °F 88% 30.06 in 10.0 mi NNE 10.4 mph 19.6 mph 0.01 in   Overcast
6:53 PM 60.1 °F 57.0 °F 90% 30.06 in 10.0 mi NNE 13.8 mph 20.7 mph 0.01 in   Overcast
7:15 PM 59.0 °F 57.2 °F 94% 30.06 in 10.0 mi NE 18.4 mph 25.3 mph N/A   Overcast
7:53 PM 57.9 °F 55.9 °F 93% 30.07 in 10.0 mi NE 11.5 mph 23.0 mph N/A   Overcast
8:05 PM 59.0 °F 55.4 °F 88% 30.08 in 10.0 mi NNE 15.0 mph 21.9 mph N/A   Overcast
8:53 PM 57.0 °F 53.1 °F 87% 30.09 in 10.0 mi NNE 9.2 mph 19.6 mph N/A   Overcast
9:53 PM 55.0 °F 51.1 °F 86% 30.12 in 10.0 mi NNE 15.0 mph 23.0 mph N/A   Overcast
10:53 PM 55.0 °F 51.1 °F 86% 30.12 in 10.0 mi NNE 10.4 mph 19.6 mph N/A   Overcast
11:29 PM 55.4 °F 51.8 °F 88% 30.12 in 10.0 mi NNE 10.4 mph 18.4 mph N/A   Overcast
11:45 PM 55.4 °F 51.8 °F 88% 30.11 in 10.0 mi NNE 10.4 mph 20.7 mph N/A   Overcast
11:53 PM 55.0 °F 51.1 °F 86% 30.10 in 10.0 mi NE 12.7 mph 20.7 mph N/A   Overcast